Home   Weather   Tampa   Past weeks
Flag for USA

Past Weather in Tampa, Florida, USA — Yesterday and Last 2 Weeks

Now
90 °F

Partly sunny.


Feels Like: 95 °F
Forecast: 91 / 73 °F
Wind: 6 mph from Southwest

Location: Tampa, Peter O Knight Airport

Current Time: May 21, 2019 at 2:51:21 pm

Latest Report: May 21, 2019 at 2:15 pm


Visibility: 10 mi

Pressure: 29.95 "Hg

Humidity: 52%

Dew Point: 70 °F

Location of TampaLocation

Past Weather in Tampa — Graph

°F

Tampa Temperature Yesterday

Maximum temperature yesterday: 91 °F (at 1:55 pm)
Minimum temperature yesterday: 73 °F (at 4:35 am)
Average temperature yesterday: 83 °F

High & Low Weather Summary for the Past Weeks

 TemperatureHumidityPressure
High91 °F (May 7, 3:35 pm)100% (May 7, 4:35 am)30.09 "Hg (May 7, 4:35 am)
Low68 °F (May 17, 6:15 am)26% (May 19, 3:15 pm)29.85 "Hg (May 13, 6:35 pm)
Average81 °F68%29.99 "Hg
* Reported May 6 1:15 pm — May 21 1:35 pm, Tampa. Weather by CustomWeather, © 2019

Note: Actual official high and low records may vary slightly from our data, if they occured in-between our weather recording intervals... More about our weather records

Advertising

Tampa Weather History for the Previous 24 Hours

Scroll right to see more
 ConditionsComfort  
Time TempWeatherWind HumidityBarometerVisibility
1:35 pm
Tue, May 21
90 °FSunny.3 mph52%29.96 "Hg10 mi
1:15 pm88 °FSunny.6 mph55%29.97 "Hg10 mi
12:55 pm88 °FScattered clouds.5 mph55%29.98 "Hg10 mi
12:35 pm88 °FPartly sunny.5 mph59%29.98 "Hg10 mi
12:15 pm86 °FBroken clouds.5 mph62%29.98 "Hg10 mi
11:55 am86 °FMore clouds than sun.6 mph66%29.99 "Hg10 mi
11:35 am86 °FMore clouds than sun.7 mph66%29.99 "Hg10 mi
11:15 am86 °FOvercast.6 mph66%29.99 "Hg10 mi
10:55 am84 °FOvercast.6 mph70%29.98 "Hg10 mi
10:35 am84 °FOvercast.6 mph70%29.98 "Hg10 mi
10:15 am82 °FOvercast.5 mph74%29.98 "Hg10 mi
9:35 am81 °FMostly cloudy.6 mph79%29.99 "Hg10 mi
9:15 am81 °FOvercast.5 mph79%29.99 "Hg10 mi
8:55 am79 °FOvercast.3 mph84%29.99 "Hg10 mi
8:35 am79 °FOvercast.No wind84%29.99 "Hg10 mi
7:55 am77 °FMostly cloudy.No wind89%29.98 "Hg10 mi
7:35 am75 °FMostly cloudy.No wind100%29.97 "Hg10 mi
5:15 am73 °FPassing clouds.5 mph100%29.95 "Hg10 mi
4:55 am75 °FMostly cloudy.3 mph94%29.94 "Hg10 mi
4:35 am75 °FOvercast.5 mph94%29.94 "Hg10 mi
4:15 am77 °FOvercast.6 mph89%29.94 "Hg10 mi
3:55 am77 °FOvercast.5 mph89%29.94 "Hg10 mi
3:35 am77 °FOvercast.7 mph89%29.94 "Hg10 mi
3:15 am77 °FOvercast.7 mph89%29.94 "Hg10 mi
2:55 am77 °FOvercast.7 mph83%29.95 "Hg10 mi
2:35 am77 °FOvercast.10 mph83%29.95 "Hg10 mi
2:15 am77 °FOvercast.8 mph83%29.95 "Hg10 mi
1:55 am77 °FOvercast.7 mph83%29.96 "Hg10 mi
1:35 am79 °FMostly cloudy.6 mph79%29.96 "Hg10 mi
1:15 am79 °FMostly cloudy.6 mph79%29.97 "Hg10 mi
12:55 am79 °FOvercast.5 mph84%29.98 "Hg10 mi
12:35 am79 °FMostly cloudy.5 mph84%29.99 "Hg10 mi
12:15 am79 °FMostly cloudy.5 mph84%29.99 "Hg10 mi
11:55 pm
Mon, May 20
79 °FDrizzle. Mostly cloudy.7 mph84%29.99 "Hg10 mi
11:35 pm79 °FLight rain. Overcast.10 mph84%29.99 "Hg7 mi
11:15 pm81 °FMostly cloudy.13 mph74%29.99 "Hg10 mi
10:55 pm81 °FMostly cloudy.8 mph70%29.99 "Hg10 mi
10:35 pm81 °FMostly cloudy.8 mph70%29.99 "Hg10 mi
10:15 pm81 °FPartly cloudy.10 mph66%29.98 "Hg10 mi
9:55 pm82 °FPartly cloudy.9 mph58%29.98 "Hg10 mi
9:35 pm82 °FPassing clouds.7 mph55%29.97 "Hg10 mi
9:15 pm82 °FPassing clouds.6 mph55%29.96 "Hg10 mi
8:55 pm84 °FPassing clouds.3 mph48%29.95 "Hg10 mi
8:35 pm86 °FClear.3 mph43%29.94 "Hg10 mi
8:15 pm86 °FPassing clouds.5 mph40%29.94 "Hg10 mi
7:55 pm86 °FScattered clouds.6 mph35%29.94 "Hg10 mi
7:35 pm88 °FScattered clouds.5 mph33%29.93 "Hg10 mi
6:55 pm90 °FBroken clouds.5 mph38%29.94 "Hg10 mi
6:35 pm90 °FMore clouds than sun.6 mph38%29.94 "Hg10 mi
6:15 pm90 °FMostly cloudy.6 mph41%29.95 "Hg10 mi
5:55 pm90 °FOvercast.6 mph43%29.95 "Hg10 mi
5:35 pm90 °FMostly cloudy.7 mph46%29.95 "Hg10 mi
5:15 pm90 °FMore clouds than sun.7 mph46%29.95 "Hg10 mi
4:55 pm91 °FMore clouds than sun.6 mph46%29.95 "Hg10 mi
4:35 pm90 °FMore clouds than sun.3 mph43%29.95 "Hg10 mi
4:15 pm91 °FMore clouds than sun.6 mph41%29.96 "Hg10 mi
3:55 pm91 °FMore clouds than sun.7 mph41%29.96 "Hg10 mi
3:35 pm91 °FOvercast.6 mph41%29.97 "Hg10 mi
3:15 pm91 °FMore clouds than sun.6 mph41%29.98 "Hg10 mi
2:55 pm91 °FMore clouds than sun.6 mph41%29.99 "Hg10 mi
2:35 pm91 °FMore clouds than sun.5 mph44%30.00 "Hg10 mi
2:15 pm91 °FBroken clouds.6 mph44%30.01 "Hg10 mi
Weather by CustomWeather, © 2019

See weather overview